Weather Service Report


501 
ASUS43 KTOP 081359
RWRKS 

WEATHER ROUNDUP FOR KANSAS
NATIONAL WEATHER SERVICE GOODLAND KS
800 AM CST MON FEB 08 2016

NOTE:  "FAIR" INDICATES FEW OR NO CLOUDS BELOW 12,000 FEET WITH NO
SIGNIFICANT WEATHER AND/OR OBSTRUCTIONS TO VISIBILITY.

KSZ001>006-013>018-027>032-041>047-081500-
NORTHWEST KANSAS
  
CITY           SKY/WX    TMP DP  RH WIND       PRES   REMARKS
GOODLAND       CLOUDY    21  10  62 NW16      30.33R WCI   7          
HAYS           CLEAR     30   9  40 NW28G36   30.26S WCI  16          
HILL CITY      CLEAR     28  15  58 NW22G30   30.29S WCI  14          
RUSSELL        CLEAR     30  16  56 NW24G37   30.23S WCI  16          
$$

KSZ061>065-074>080-084>089-081500-
SOUTHWEST KANSAS
  
CITY           SKY/WX    TMP DP  RH WIND       PRES   REMARKS
DODGE CITY     CLEAR     25  11  55 NW16      30.33R WCI  12          
ELKHART          N/A     30  10  43 NW16        N/A  WCI  19          
GARDEN CITY    CLEAR     25  13  60 NW15      30.35R WCI  13          
GREAT BEND     CLEAR     30  12  47 NW20G30   30.27S WCI  18          
LIBERAL        CLEAR     28  10  47 NW16      30.38R WCI  17          
$$

KSZ066>073-081>083-090>101-081500-
SOUTHEAST KANSAS
  
CITY           SKY/WX    TMP DP  RH WIND       PRES   REMARKS
CHANUTE        CLOUDY    35  20  54 NW20G31   30.08S WCI  24          
COFFEYVILLE    PTCLDY    34  19  54 W13       30.13S WCI  25          
HUTCHINSON     CLEAR     32  15  49 NW22G31   30.21R WCI  19          
MEDICINE LODGE   N/A     32  15  49 NW16G28   30.27R WCI  21          
NEWTON         CLEAR     30  14  51 NW20G25   30.18R WCI  18          
PARSONS        PTCLDY    33  20  58 W13       30.11S WCI  24          
WICHITA INTL   PTCLDY    33  16  49 NW22G30   30.20R WCI  21          
WICHITA JABRA  CLEAR     32  16  51 NW24G31   30.19R WCI  19          
WICHITA MCCONL CLEAR     33  15  48 NW22G28   30.19R WCI  21          
WINFIELD       CLEAR     34  16  47 NW24G30   30.20S WCI  21          
$$

KSZ007>012-019>026-033>040-048>060-102>105-081500-
NORTHEAST KANSAS
  
CITY           SKY/WX    TMP DP  RH WIND       PRES   REMARKS
CONCORDIA      CLOUDY    30  18  60 NW16G23   30.17R WCI  19          
EMPORIA        PTCLDY    33  16  49 NW24G37   30.09R WCI  20          
LAWRENCE       CLOUDY    31  19  61 N18G25    30.06R WCI  19          
MANHATTAN      CLOUDY    34  18  52 NW13G25   30.14R WCI  25          
OLATHE IND     CLOUDY    31  17  56 NW29G40   30.04R WCI  16          
OLATHE EXE     MOCLDY    31  15  52 NW24G35   30.01S WCI  17          
SALINA         CLEAR     32  17  54 NW22      30.19R WCI  19          
TOPEKA BILLARD CLOUDY    33  21  61 NW24G36   30.08R WCI  20          
TOPEKA FORBES  CLOUDY    33  23  66 NW28G35   30.07R WCI  20          
$$
  

Return to Home page


Western Regional Climate Center, wrcc@dri.edu